Torna al catalogo

SL-12 R/B(2)

AttivoGEO
NORAD 20086·ROCKET BODY·🇷🇺 Russia

Lanciato Jun 21, 1989 da Baikonur Cosmodrome

Loading…

TLE

AggiornatoSource: Space-Track

Epoca: Sep 14, 2026, 11:21 UTC

1 20086U 89048D   26257.47347362 -.00000197  00000-0  00000-0 0  9991
2 20086  13.0364 335.4861 0020183 152.3153 209.0933  0.97891919133094

Traccia SL-12 R/B(2) in tempo reale con AllMySat

Download on the App Store